TimeMST,TemperatureF,Dew PointF,Humidity,Sea Level PressureIn,VisibilityMPH,Wind Direction,Wind SpeedMPH,Gust SpeedMPH,PrecipitationIn,Events,Conditions,WindDirDegrees,DateUTC
12:15 AM,15.8,15.8,100,30.28,2.0,Calm,Calm,-,N/A,,Clear,0,2013-01-24 07:15:00
12:35 AM,17.6,15.8,93,30.27,2.0,Calm,Calm,-,N/A,,Mostly Cloudy,0,2013-01-24 07:35:00
12:55 AM,17.6,17.6,100,30.26,2.0,Calm,Calm,-,N/A,,Mostly Cloudy,0,2013-01-24 07:55:00
1:35 AM,19.4,15.8,86,30.25,2.0,Calm,Calm,-,N/A,,Scattered Clouds,0,2013-01-24 08:35:00
1:55 AM,19.4,17.6,93,30.24,2.0,NNE,3.5,-,N/A,,Clear,30,2013-01-24 08:55:00
2:15 AM,19.4,15.8,86,30.24,2.5,WNW,6.9,-,N/A,,Mostly Cloudy,290,2013-01-24 09:15:00
2:35 AM,19.4,15.8,86,30.25,3.0,NW,4.6,-,N/A,,Scattered Clouds,320,2013-01-24 09:35:00
2:55 AM,21.2,17.6,86,30.28,3.0,Calm,Calm,-,N/A,,Partly Cloudy,0,2013-01-24 09:55:00
3:15 AM,21.2,17.6,86,30.28,2.5,SSE,9.2,-,N/A,,Clear,150,2013-01-24 10:15:00
3:35 AM,19.4,17.6,93,30.26,2.0,Calm,Calm,-,N/A,,Clear,0,2013-01-24 10:35:00
3:55 AM,21.2,17.6,86,30.26,2.5,Calm,Calm,-,N/A,,Clear,0,2013-01-24 10:55:00
4:15 AM,21.2,19.4,93,30.26,2.5,Calm,Calm,-,N/A,,Clear,0,2013-01-24 11:15:00
4:35 AM,21.2,19.4,93,30.25,2.0,Calm,Calm,-,N/A,,Mostly Cloudy,0,2013-01-24 11:35:00
4:55 AM,21.2,17.6,86,30.25,2.5,Calm,Calm,-,N/A,,Mostly Cloudy,0,2013-01-24 11:55:00
5:15 AM,21.2,19.4,93,30.24,3.0,North,5.8,-,N/A,,Scattered Clouds,10,2013-01-24 12:15:00
5:35 AM,23.0,21.2,93,30.26,3.0,NNE,4.6,-,N/A,,Mostly Cloudy,20,2013-01-24 12:35:00
5:55 AM,23.0,21.2,93,30.26,3.0,North,5.8,-,N/A,,Scattered Clouds,10,2013-01-24 12:55:00
6:15 AM,24.8,21.2,86,30.26,3.0,NNW,9.2,-,N/A,,Mostly Cloudy,330,2013-01-24 13:15:00
6:35 AM,24.8,21.2,86,30.27,3.0,West,11.5,17.3,N/A,,Overcast,260,2013-01-24 13:35:00
6:50 AM,24.8,19.4,80,30.27,5.0,NW,9.2,-,N/A,Rain,Light Freezing Rain,310,2013-01-24 13:50:00
6:55 AM,24.8,19.4,80,30.26,3.0,NNW,10.4,-,N/A,,Mostly Cloudy,340,2013-01-24 13:55:00
7:50 AM,24.8,23.0,93,30.28,2.0,Calm,Calm,-,N/A,Rain,Light Freezing Rain,0,2013-01-24 14:50:00
8:55 AM,26.6,24.8,93,30.28,2.0,Calm,Calm,-,N/A,Rain,Light Freezing Rain,0,2013-01-24 15:55:00
10:50 AM,28.4,26.6,93,30.32,2.0,Calm,Calm,-,N/A,Rain,Freezing Rain,0,2013-01-24 17:50:00
11:50 AM,30.2,28.4,93,30.32,1.5,Calm,Calm,-,N/A,,Overcast,0,2013-01-24 18:50:00
1:50 PM,32.0,30.2,93,30.28,1.5,Calm,Calm,-,N/A,,Overcast,0,2013-01-24 20:50:00
2:47 PM,32.0,30.2,93,30.27,1.0,Calm,Calm,-,N/A,,Overcast,0,2013-01-24 21:47:00
3:47 PM,32.0,30.2,93,30.28,1.0,Calm,Calm,-,N/A,,Overcast,0,2013-01-24 22:47:00
4:50 PM,33.8,32.0,93,30.29,1.0,Calm,Calm,-,N/A,,Overcast,0,2013-01-24 23:50:00
5:47 PM,32.0,30.2,93,30.31,0.8,Calm,Calm,-,N/A,,Overcast,0,2013-01-25 00:47:00
6:24 PM,32.0,30.2,93,30.31,1.2,Calm,Calm,-,N/A,,Overcast,0,2013-01-25 01:24:00
6:54 PM,33.8,30.2,87,30.31,1.2,Calm,Calm,-,N/A,,Overcast,0,2013-01-25 01:54:00
7:55 PM,32.0,30.2,93,30.31,1.5,Calm,Calm,-,N/A,,Overcast,0,2013-01-25 02:55:00
8:55 PM,32.0,30.2,93,30.30,1.5,Calm,Calm,-,N/A,,Overcast,0,2013-01-25 03:55:00
9:15 PM,32.0,30.2,93,30.30,1.5,West,4.6,-,N/A,,Overcast,280,2013-01-25 04:15:00
9:35 PM,32.0,30.2,93,30.31,1.8,Calm,Calm,-,N/A,,Overcast,0,2013-01-25 04:35:00
9:55 PM,32.0,30.2,93,30.32,1.5,Calm,Calm,-,N/A,,Overcast,0,2013-01-25 04:55:00
10:15 PM,32.0,32.0,100,30.33,1.5,Calm,Calm,-,N/A,,Overcast,0,2013-01-25 05:15:00
10:35 PM,32.0,32.0,100,30.33,1.8,Calm,Calm,-,N/A,,Overcast,0,2013-01-25 05:35:00
10:55 PM,32.0,30.2,93,30.33,1.5,Calm,Calm,-,N/A,,Overcast,0,2013-01-25 05:55:00
11:15 PM,32.0,30.2,93,30.33,1.2,East,5.8,-,N/A,,Overcast,90,2013-01-25 06:15:00
11:35 PM,32.0,32.0,100,30.33,1.2,Calm,Calm,-,N/A,,Overcast,0,2013-01-25 06:35:00
11:55 PM,32.0,32.0,100,30.32,1.5,Calm,Calm,-,N/A,,Overcast,0,2013-01-25 06:55:00